Flag for Brazil Weather past 2 weeks in Volta Redonda, Rio de Janeiro, Brazil

Now
91 °F

Scattered clouds.


Feels Like: 97 °F
Forecast: 66 / 87 °F
Wind: 13 mph from Southeast

Location: Galeao

Current Time: Jan 26, 2015 at 1:25:17 PM

Latest Report: Jan 26, 2015 at 1:00 PM


Visibility: N/A

Pressure: 29.89 "Hg

Humidity: 49%

Dew point: 70 °F

Location of Volta RedondaLocation

Historic Weather in Volta Redonda — Graph

°F

Volta Redonda temperature yesterday

Maximum temperature yesterday: 97 °F (at 4:00 PM)
Minimum temperature yesterday: 73 °F (at 4:00 AM)
Average temperature yesterday: 84 °F

Past Weeks' High & Low Weather Summary

 TemperatureHumidityPressure
High102 °F (Jan 12, 3:00 PM)94% (Jan 22, 8:00 PM)30.01 "Hg (Jan 22, 8:00 PM)
Low73 °F (Jan 22, 8:00 PM)21% (Jan 12, 3:00 PM)29.80 "Hg (Jan 12, 5:00 PM)
Average85 °F60%29.89 "Hg
* Reported Jan 11 12:00 Noon — Jan 26 12:00 Noon, Volta Redonda, Weather by CustomWeather, © 2014

Note: Actual official high and low records may vary slightly from our data, if they occured in-between our weather recording intervals... More about our weather records

Advertising

Volta Redonda weather history for previous 24 hours

 ConditionsComfort  
Time TempWeatherWind HumidityBarometerVisibility
12:00 PM
Jan 26
93 °FScattered clouds.7 mph44%29.92 "HgN/A
11:00 AM90 °FScattered clouds.6 mph43%29.92 "HgN/A
10:00 AM88 °FScattered clouds.5 mph46%29.92 "HgN/A
9:00 AM82 °FScattered clouds.No wind66%29.89 "HgN/A
8:00 AM81 °FPassing clouds.No wind70%29.89 "Hg4 mi
7:00 AM77 °FPassing clouds.5 mph79%29.86 "Hg6 mi
6:00 AM77 °FPassing clouds.3 mph74%29.86 "HgN/A
5:00 AM77 °FPassing clouds.5 mph79%29.86 "HgN/A
4:00 AM77 °FPassing clouds.5 mph79%29.86 "HgN/A
3:00 AM77 °FPassing clouds.109 mph79%29.86 "HgN/A
2:00 AM82 °FPassing clouds.5 mph62%29.86 "HgN/A
1:00 AM82 °FPassing clouds.6 mph62%29.89 "HgN/A
12:00 AM84 °FClear.6 mph55%29.89 "Hg10 mi
11:00 PM
Jan 25
84 °FClear.5 mph55%29.89 "Hg10 mi
10:00 PM82 °FPassing clouds.13 mph66%29.86 "HgN/A
9:00 PM84 °FPassing clouds.3 mph55%29.86 "HgN/A
8:00 PM88 °FPassing clouds.6 mph46%29.83 "HgN/A
7:00 PM90 °FThundershowers. Scattered clouds.15 mph43%29.80 "HgN/A
6:00 PM91 °FThundershowers. Passing clouds.12 mph44%29.80 "HgN/A
5:00 PM95 °FPassing clouds.13 mph28%29.80 "HgN/A
4:00 PM97 °FPassing clouds.6 mph28%29.83 "HgN/A
3:00 PM95 °FPassing clouds.10 mph28%29.86 "HgN/A
2:00 PM93 °FPassing clouds.9 mph32%29.89 "HgN/A
1:00 PM91 °FScattered clouds.5 mph38%29.89 "HgN/A
Weather by CustomWeather, © 2014

See weather overviewHow to use our weather pages